Location: Raleigh
(35.7720°N, 78.6390°W)
Time: 10:04:54
(UTC-04:00)

Amateur Radio Satellites - All Passes

Search period start: 28 May 2015 09:34
Search period end: 29 May 2015 09:34
Location: Raleigh, 35.7720°N, 78.6390°W

Satellite Date Start Highest point End Downlink Frequencies (MHz)
Time Altitude Azimuth
GOMX 1 28 May 09:40:57 09:46:19 87° 106° (ESE) 09:51:19 467.674
Cosmos 2491 28 May 09:43:49 09:44:52 10° 282° (WNW) 09:45:01 435.465 / 435.565
AAUSAT CUBESAT 2 28 May 09:44:03 09:47:38 29° 96° (E) 09:51:16 437.432
BRITE-PL 28 May 09:45:20 09:50:50 56° 286° (WNW) 09:56:01 437.365/2234.400
JUGNU 28 May 09:47:33 09:49:08 11° 167° (SSE) 09:50:50 437.505
UWE-3 28 May 09:55:31 09:56:57 12° 89° (E) 09:58:36 435.000/436.395/437.385
HO-68 28 May 09:59:58 10:07:08 77° 104° (ESE) 10:14:17 435.675
UNISAT 6 28 May 10:02:40 10:05:38 17° 69° (ENE) 10:08:46 437.425
FUNcube-1 28 May 10:02:59 10:03:09 10° 88° (E) 10:03:37 145.935
CINEMA 3 28 May 10:03:07 10:07:33 42° 97° (E) 10:11:46 145.822/145.860
DELFI C3 28 May 10:03:16 10:05:21 14° 92° (E) 10:07:37 145.870
RS-15 28 May 10:06:25 10:17:14 66° 305° (NW) 10:28:18 29.354- 29.394
PCSat 28 May 10:17:27 10:22:44 51° 59° (ENE) 10:28:00 145.827
NANOSAT C BR1 28 May 10:21:16 10:21:30 10° 66° (ENE) 10:22:01 145.865
QB50P2 28 May 10:28:31 10:30:30 13° 68° (ENE) 10:32:44 145.880/145.840
YUBILEINY 28 May 10:31:24 10:34:39 12° 301° (WNW) 10:37:09 435.215
CANX-2 28 May 10:33:54 10:37:40 32° 287° (WNW) 10:41:23 2200.000
DOVE 4 28 May 10:35:25 10:40:08 39° 288° (WNW) 10:44:33 437.250
CUTE 1.7 + AOD 2 28 May 10:37:13 10:41:00 32° 287° (WNW) 10:44:44 437.475
POPSAT HIP 1 28 May 10:39:34 10:42:21 18° 69° (ENE) 10:45:17 437.405
DUCHIFAT 1 28 May 10:40:22 10:43:06 17° 69° (ENE) 10:46:00 145.980
ZACube-1 28 May 10:40:58 10:44:49 32° 96° (E) 10:48:36 437.345
UKube-1 28 May 10:41:24 10:43:18 13° 91° (E) 10:45:27 .
Cosmos 2504 28 May 10:42:53 10:51:19 88° 276° (W) 10:59:12 435.465 / 435.565
ANTELSAT 28 May 10:44:19 10:48:50 49° 74° (ENE) 10:53:20 437.575/2403.000
CUBEBUG 2 28 May 10:45:13 10:49:36 62° 100° (E) 10:53:49 437.445
Oscar 11 28 May 10:49:50 10:54:09 80° 102° (ESE) 10:58:26 145.826/435.025
DX 1 28 May 10:51:17 10:54:21 19° 94° (E) 10:57:34 434.975-435.025
BUGSAT 1 28 May 10:56:59 10:59:43 18° 69° (ENE) 11:02:38 437.445
SEEDS 28 May 10:57:57 11:01:19 23° 289° (WNW) 11:04:34 437.485
50 SAT 28 May 11:02:15 11:03:27 11° 91° (E) 11:04:51 437.505
COMPASS 1 28 May 11:09:00 11:12:13 21° 289° (WNW) 11:15:20 437.405
VELOX 1 28 May 11:11:20 11:13:56 16° 92° (E) 11:16:45 145.980
TIGRISAT 28 May 11:16:16 11:20:58 76° 258° (WSW) 11:25:38 435.000
AAUSAT CUBESAT 2 28 May 11:20:06 11:23:04 19° 290° (WNW) 11:25:56 437.432
ESTCUBE 1 28 May 11:20:51 11:22:13 11° 90° (E) 11:23:52 437.505/2401.250
QB50P1 28 May 11:21:54 11:26:04 55° 75° (ENE) 11:30:17 145.935-145.965
GOMX 1 28 May 11:22:26 11:23:39 11° 297° (WNW) 11:24:31 467.674
POLYITAN 1 28 May 11:24:39 11:28:53 61° 75° (ENE) 11:33:09 437.675
UWE-3 28 May 11:29:40 11:33:53 48° 286° (WNW) 11:37:56 435.000/436.395/437.385
JUGNU 28 May 11:33:52 11:37:26 16° 177° (S) 11:40:58 437.505
FUNcube-1 28 May 11:35:45 11:39:57 54° 285° (WNW) 11:44:01 145.935
DELFI C3 28 May 11:36:57 11:40:38 35° 287° (WNW) 11:44:17 145.870
UNISAT 6 28 May 11:37:40 11:42:08 42° 262° (W) 11:46:33 437.425
CINEMA 3 28 May 11:41:26 11:44:23 16° 293° (WNW) 11:47:04 145.822/145.860
AISAT 28 May 11:42:17 11:46:27 37° 98° (E) 11:50:37 437.250
HO-68 28 May 11:49:26 11:54:12 19° 300° (WNW) 11:58:39 435.675
NANOSAT C BR1 28 May 11:52:38 11:56:52 63° 260° (W) 12:01:08 145.865
SO-50 28 May 11:57:36 12:02:11 37° 53° (NE) 12:06:43 436.795
HUMSAT D 28 May 11:58:56 12:03:03 64° 284° (WNW) 12:07:05 437.325/437.525
CUSAT 1 28 May 12:00:58 12:05:51 20° 83° (E) 12:11:33 437.405
QB50P2 28 May 12:01:55 12:06:03 46° 261° (W) 12:10:12 145.880/145.840
PCSat 28 May 12:02:04 12:05:47 18° 254° (WSW) 12:09:18 145.827
POPSAT HIP 1 28 May 12:14:04 12:17:59 34° 263° (W) 12:21:55 437.405
DUCHIFAT 1 28 May 12:14:46 12:18:41 34° 263° (W) 12:22:35 145.980
UKube-1 28 May 12:15:34 12:19:45 45° 286° (WNW) 12:23:53 .
ZACube-1 28 May 12:17:58 12:20:58 18° 291° (WNW) 12:23:46 437.345
ANTELSAT 28 May 12:23:18 12:25:55 14° 269° (W) 12:28:17 437.575/2403.000
RS-15 28 May 12:24:44 12:32:31 20° 333° (NNW) 12:40:07 29.354- 29.394
CUBEBUG 2 28 May 12:24:51 12:25:46 10° 295° (WNW) 12:26:24 437.445
DX 1 28 May 12:26:45 12:30:41 32° 288° (WNW) 12:34:33 434.975-435.025
BUGSAT 1 28 May 12:31:14 12:34:58 32° 263° (W) 12:38:44 437.445
50 SAT 28 May 12:34:47 12:38:25 39° 286° (WNW) 12:42:00 437.505
CUBEBUG 1 28 May 12:40:07 12:44:35 86° 102° (ESE) 12:49:02 437.445
Cosmos 2504 28 May 12:41:25 12:45:52 15° 295° (WNW) 12:49:37 435.465 / 435.565
VELOX 1 28 May 12:46:30 12:50:43 40° 287° (WNW) 12:54:53 145.980
SRMSAT 28 May 12:54:01 12:57:22 15° 175° (S) 13:00:45 437.500
ESTCUBE 1 28 May 12:55:03 12:59:31 56° 285° (WNW) 13:03:56 437.505/2401.250
GONETS M04 28 May 12:56:44 13:04:42 41° 88° (E) 13:12:49
QB50P1 28 May 13:01:27 13:02:21 10° 271° (W) 13:02:57 145.935-145.965
SPROUT 28 May 13:13:13 13:17:27 52° 99° (E) 13:21:40 437.525
AISAT 28 May 13:19:41 13:22:46 18° 292° (WNW) 13:25:42 437.250
DANDE 28 May 13:19:43 13:26:35 62° 93° (E) 13:34:52 436.750
Oscar 19 28 May 13:21:38 13:26:20 37° 71° (ENE) 13:31:08 437.125/150
JUGNU 28 May 13:22:26 13:25:42 15° 187° (S) 13:28:55 437.505
TISAT 1 28 May 13:30:31 13:34:45 59° 100° (E) 13:38:56 437.305
SO-50 28 May 13:38:34 13:42:34 24° 249° (WSW) 13:46:22 436.795
CUSAT 1 28 May 13:40:22 13:47:39 76° 280° (W) 13:56:00 437.405
ITAMSAT 1 28 May 13:41:02 13:44:02 16° 66° (ENE) 13:47:16 435.822/435.867
SWISSCUBE 28 May 13:46:29 13:48:50 14° 91° (E) 13:51:26 437.505
AO-7 28 May 14:17:51 14:20:41 13° 52° (NE) 14:24:03 29.400- 29.500
Gurwin Techsat 1B 28 May 14:25:49 14:30:45 42° 72° (ENE) 14:35:45 435.225
JAS-2 28 May 14:34:24 14:35:27 11° 64° (ENE) 14:36:56 435.910
SRMSAT 28 May 14:42:21 14:45:48 16° 185° (S) 14:49:14 437.500
RS-15 28 May 14:46:16 14:51:19 14° 9° (N) 14:56:40 29.354- 29.394
SPROUT 28 May 14:51:17 14:53:08 12° 293° (WNW) 14:54:45 437.525
O/OREOS (USA 219) 28 May 14:52:21 14:55:22 18° 102° (ESE) 14:58:31 437.305
GONETS M04 28 May 14:53:24 15:01:35 39° 286° (WNW) 15:09:39
Oscar 19 28 May 15:01:42 15:05:49 23° 266° (W) 15:09:49 437.125/150
DANDE 28 May 15:04:28 15:10:35 26° 295° (WNW) 15:17:13 436.750
ITUPSAT 1 28 May 15:06:50 15:11:39 85° 283° (WNW) 15:16:27 437.325
Cosmos 2499 28 May 15:07:56 15:15:48 54° 92° (E) 15:23:09 435.465 / 435.565
TISAT 1 28 May 15:09:01 15:10:04 11° 294° (WNW) 15:10:51 437.305
BEESAT 28 May 15:13:32 15:18:17 70° 285° (WNW) 15:23:01 436.000
ITAMSAT 1 28 May 15:18:04 15:23:08 55° 260° (W) 15:28:14 435.822/435.867
SWISSCUBE 28 May 15:22:24 15:27:03 51° 286° (WNW) 15:31:40 437.505
CUSAT 1 28 May 15:27:46 15:32:02 14° 301° (WNW) 15:35:54 437.405
STARS 28 May 15:51:46 15:55:37 29° 96° (E) 15:59:30 437.465
AO-7 28 May 16:03:57 16:12:06 65° 69° (ENE) 16:20:20 29.400- 29.500
Gurwin Techsat 1B 28 May 16:06:57 16:10:56 21° 267° (W) 16:14:47 435.225
JAS-2 28 May 16:13:16 16:20:03 81° 76° (ENE) 16:26:03 435.910
HORYU 2 28 May 16:15:46 16:20:16 88° 257° (WSW) 16:24:46 437.375
KKS-1 28 May 16:27:39 16:32:05 61° 285° (WNW) 16:36:28 437.445
O/OREOS (USA 219) 28 May 16:30:25 16:34:34 34° 296° (WNW) 16:38:40 437.305
SRMSAT 28 May 16:33:45 16:34:13 10° 194° (SSW) 16:34:34 437.500
MOZHAYETS 4 28 May 16:35:25 16:35:49 10° 89° (E) 16:36:33
RS-15 28 May 16:58:56 17:08:59 34° 42° (NE) 17:19:39 29.354- 29.394
BEESAT 2 28 May 17:02:25 17:04:30 14° 110° (ESE) 17:06:47 435.950
Cosmos 2499 28 May 17:02:39 17:09:17 26° 288° (WNW) 17:15:21 435.465 / 435.565
STARS 28 May 17:28:31 17:31:56 21° 291° (WNW) 17:35:11 437.465
CUTE-I 28 May 17:44:40 17:48:29 21° 67° (ENE) 17:52:28 437.470
BEESAT 3 28 May 17:46:59 17:50:58 61° 117° (ESE) 17:55:02 437.485
AO-7 28 May 17:59:02 18:05:33 24° 267° (W) 18:11:45 29.400- 29.500
JAS-2 28 May 18:02:30 18:05:39 13° 269° (W) 18:08:13 435.910
Cubesat XI-IV 28 May 18:04:51 18:09:30 33° 70° (ENE) 18:14:15 437.490
MOZHAYETS 4 28 May 18:09:00 18:13:32 62° 284° (WNW) 18:18:02
CUBESAT XI-V 28 May 18:18:30 18:19:26 11° 89° (E) 18:20:41 437.345
BEESAT 2 28 May 18:38:20 18:42:15 42° 304° (WNW) 18:46:13 435.950
AIST 2 28 May 18:39:25 18:43:30 49° 116° (ESE) 18:47:40 435.215
YUBILEINY 28 May 18:41:04 18:49:24 50° 77° (ENE) 18:57:47 435.215
Cosmos 2491 28 May 18:43:02 18:49:54 28° 85° (E) 18:57:07 435.465 / 435.565
RS-15 28 May 19:10:56 19:22:38 75° 244° (WSW) 19:34:43 29.354- 29.394
BRITE-PL 28 May 19:16:57 19:19:33 14° 64° (ENE) 19:22:31 437.365/2234.400
CUTE-I 28 May 19:23:15 19:28:17 43° 261° (W) 19:33:20 437.470
BEESAT 3 28 May 19:27:30 19:29:24 13° 314° (NW) 19:31:09 437.485
Cubesat XI-IV 28 May 19:45:10 19:49:39 27° 265° (W) 19:54:03 437.490
CUBESAT XI-V 28 May 19:52:42 19:57:22 64° 284° (WNW) 20:02:02 437.345
DOVE 4 28 May 20:01:32 20:04:36 17° 66° (ENE) 20:07:56 437.250
AIST 1 28 May 20:04:11 20:06:48 17° 89° (E) 20:09:36
SEEDS 28 May 20:13:13 20:14:56 13° 68° (ENE) 20:16:52 437.485
STRAND 1 28 May 20:17:36 20:22:46 83° 103° (ESE) 20:27:56 437.568
AIST 2 28 May 20:19:40 20:22:24 16° 313° (NW) 20:25:00 435.215
COMPASS 1 28 May 20:23:17 20:25:07 13° 68° (ENE) 20:27:10 437.405
HO-68 28 May 20:25:21 20:31:59 43° 68° (ENE) 20:38:42 435.675
PRISM 28 May 20:28:19 20:32:23 55° 286° (WNW) 20:36:28 437.425
AAUSAT CUBESAT 2 28 May 20:33:24 20:35:37 15° 69° (ENE) 20:37:59 437.432
Cosmos 2491 28 May 20:37:42 20:46:20 56° 282° (WNW) 20:54:57 435.465 / 435.565
YUBILEINY 28 May 20:38:31 20:45:55 31° 274° (W) 20:53:05 435.215
Cosmos 2504 28 May 20:39:58 20:45:32 25° 71° (ENE) 20:51:22 435.465 / 435.565
M-CUBED/EXP-1 PRIME 28 May 20:41:38 20:44:54 63° 105° (ESE) 20:48:15 437.505
GOMX 1 28 May 20:45:13 20:50:18 68° 76° (ENE) 20:55:42 467.674
AUBIESAT-1 28 May 20:47:57 20:51:15 65° 106° (ESE) 20:54:36 437.475
BRITE-PL 28 May 20:52:23 20:57:26 67° 260° (W) 21:02:53 437.365/2234.400
CINEMA 3 28 May 21:01:30 21:05:49 31° 71° (ENE) 21:10:16 145.822/145.860
CANX-2 28 May 21:23:17 21:27:32 66° 259° (W) 21:31:46 2200.000
CUTE 1.7 + AOD 2 28 May 21:26:33 21:30:47 68° 259° (W) 21:35:01 437.475
RS-15 28 May 21:27:36 21:33:43 14° 259° (W) 21:38:42 29.354- 29.394
ZACube-1 28 May 21:34:27 21:37:47 21° 70° (ENE) 21:41:14 437.345
DOVE 4 28 May 21:36:51 21:41:52 56° 261° (W) 21:47:05 437.250
CUBEBUG 2 28 May 21:40:07 21:44:30 38° 73° (ENE) 21:48:57 437.445
AIST 1 28 May 21:40:26 21:44:14 31° 283° (WNW) 21:48:03
Oscar 11 28 May 21:41:44 21:45:48 42° 74° (ENE) 21:49:54 145.826/435.025
DX 1 28 May 21:45:41 21:47:23 12° 66° (ENE) 21:49:18 434.975-435.025
SEEDS 28 May 21:46:17 21:50:22 47° 261° (W) 21:54:27 437.485
COMPASS 1 28 May 21:56:26 22:00:28 45° 261° (W) 22:04:28 437.405
STRAND 1 28 May 22:00:02 22:01:22 11° 297° (WNW) 22:02:22 437.568
AAUSAT CUBESAT 2 28 May 22:07:00 22:10:56 39° 262° (W) 22:14:50 437.432
VELOX 1 28 May 22:08:23 22:09:08 11° 65° (ENE) 22:10:10 145.980
HO-68 28 May 22:13:28 22:19:50 32° 264° (W) 22:26:04 435.675
DELFI C3 28 May 22:20:51 22:24:53 90° 96° (E) 22:28:56 145.870
UWE-3 28 May 22:22:59 22:27:41 88° 253° (WSW) 22:32:23 435.000/436.395/437.385
GOMX 1 28 May 22:26:41 22:29:04 13° 273° (W) 22:31:09 467.674
FUNcube-1 28 May 22:27:49 22:32:24 80° 77° (ENE) 22:36:59 145.935
Cosmos 2504 28 May 22:32:25 22:39:18 49° 269° (W) 22:46:11 435.465 / 435.565
AISAT 28 May 22:37:43 22:41:15 24° 70° (ENE) 22:44:54 437.250
CINEMA 3 28 May 22:38:48 22:43:00 26° 266° (W) 22:47:09 145.822/145.860
ANTELSAT 28 May 22:41:42 22:43:04 12° 90° (E) 22:44:41 437.575/2403.000
HUMSAT D 28 May 22:47:22 22:51:37 59° 76° (ENE) 22:55:52 437.325/437.525
ISS 28 May 23:00:25 23:03:38 89° 148° (SSE) 23:06:54 145.825
UKube-1 28 May 23:07:07 23:11:26 80° 256° (WSW) 23:15:47 .
ZACube-1 28 May 23:09:46 23:13:57 33° 263° (W) 23:18:05 437.345
TIGRISAT 28 May 23:11:42 23:15:19 26° 95° (E) 23:18:57 435.000
GONETS M04 28 May 23:12:02 23:16:52 16° 63° (ENE) 23:22:15
QB50P1 28 May 23:12:25 23:13:32 11° 90° (E) 23:14:55 145.935-145.965
POLYITAN 1 28 May 23:15:02 23:16:43 12° 90° (E) 23:18:38 437.675
50 SAT 28 May 23:15:58 23:19:57 72° 77° (ENE) 23:23:56 437.505
CUBEBUG 2 28 May 23:17:54 23:21:21 19° 268° (W) 23:24:37 437.445
DX 1 28 May 23:18:58 23:23:13 53° 260° (W) 23:27:30 434.975-435.025
Oscar 11 28 May 23:19:49 23:22:13 14° 269° (W) 23:24:25 145.826/435.025
UNISAT 6 28 May 23:32:36 23:36:49 48° 99° (E) 23:40:58 437.425
CUBEBUG 1 28 May 23:33:20 23:37:31 48° 74° (ENE) 23:41:46 437.445
VELOX 1 28 May 23:40:48 23:45:11 65° 259° (W) 23:49:38 145.980
NANOSAT C BR1 28 May 23:40:58 23:44:28 25° 95° (E) 23:48:01 145.865
QB50P2 28 May 23:50:14 23:54:07 33° 97° (E) 23:58:00 145.880/145.840
ESTCUBE 1 28 May 23:51:33 23:56:01 87° 257° (WSW) 00:00:32 437.505/2401.250
POPSAT HIP 1 29 May 00:01:49 00:05:56 45° 99° (E) 00:10:00 437.405
DUCHIFAT 1 29 May 00:02:03 00:06:08 44° 99° (E) 00:10:12 145.980
SPROUT 29 May 00:04:51 00:08:31 28° 71° (ENE) 00:12:16 437.525
DANDE 29 May 00:06:45 00:13:48 43° 72° (ENE) 00:19:22 436.750
AISAT 29 May 00:13:59 00:17:45 26° 265° (W) 00:21:30 437.250
BUGSAT 1 29 May 00:15:55 00:19:59 43° 99° (E) 00:24:02 437.445
ANTELSAT 29 May 00:16:02 00:20:15 49° 286° (WNW) 00:24:22 437.575/2403.000
TISAT 1 29 May 00:20:04 00:23:45 30° 72° (ENE) 00:27:31 437.305
VERMONT LUNAR 29 May 00:20:19 00:22:50 21° 147° (SSE) 00:25:22 437.305
CUSAT 1 29 May 00:24:27 00:31:19 76° 79° (E) 00:36:27 437.405
ISS 29 May 00:38:52 00:40:30 13° 335° (NNW) 00:42:03 145.825
QB50P1 29 May 00:45:37 00:49:46 51° 286° (WNW) 00:53:53 145.935-145.965
TIGRISAT 29 May 00:48:33 00:51:59 22° 290° (WNW) 00:55:15 435.000
POLYITAN 1 29 May 00:48:50 00:52:56 46° 286° (WNW) 00:56:59 437.675
SWISSCUBE 29 May 00:51:24 00:53:13 12° 65° (ENE) 00:55:18 437.505
PCSat 29 May 00:55:54 01:01:18 86° 112° (ESE) 01:06:45 145.827
O/OREOS (USA 219) 29 May 01:04:13 01:07:43 23° 61° (ENE) 01:11:17 437.305
Cosmos 2499 29 May 01:05:25 01:07:38 12° 63° (ENE) 01:10:27 435.465 / 435.565
GONETS M04 29 May 01:06:19 01:15:10 89° 264° (W) 01:23:52
UNISAT 6 29 May 01:11:10 01:13:12 13° 293° (WNW) 01:15:01 437.425
CUBEBUG 1 29 May 01:12:16 01:14:14 12° 270° (W) 01:15:57 437.445
PHONESAT 2.4 29 May 01:14:24 01:16:32 16° 144° (SE) 01:18:44 2401.200-2431.200
NANOSAT C BR1 29 May 01:16:48 01:20:13 23° 289° (WNW) 01:23:31 145.865
QB50P2 29 May 01:26:51 01:29:46 18° 291° (WNW) 01:32:33 145.880/145.840
Oscar 19 29 May 01:37:15 01:40:16 16° 91° (E) 01:43:31 437.125/150
POPSAT HIP 1 29 May 01:39:13 01:41:26 14° 293° (WNW) 01:43:27 437.405
DUCHIFAT 1 29 May 01:39:20 01:41:36 14° 292° (WNW) 01:43:39 145.980
SPROUT 29 May 01:41:16 01:44:37 21° 266° (W) 01:47:52 437.525
DANDE 29 May 01:50:36 01:56:38 28° 275° (W) 02:01:25 436.750
BUGSAT 1 29 May 01:52:47 01:55:06 14° 292° (WNW) 01:57:14 437.445
TISAT 1 29 May 01:56:29 01:59:35 19° 267° (W) 02:02:35 437.305
VERMONT LUNAR 29 May 01:56:36 01:59:50 72° 342° (NNW) 02:03:03 437.305
BEESAT 3 29 May 02:09:15 02:11:52 17° 48° (NE) 02:14:33 437.485
CUSAT 1 29 May 02:10:06 02:12:42 12° 281° (W) 02:14:42 437.405
SO-50 29 May 02:10:07 02:13:34 22° 111° (ESE) 02:17:14 436.795
ITUPSAT 1 29 May 02:10:41 02:15:26 80° 75° (ENE) 02:20:13 437.325
BEESAT 29 May 02:16:58 02:21:44 85° 258° (WSW) 02:26:30 436.000
SWISSCUBE 29 May 02:25:55 02:30:37 62° 259° (W) 02:35:20 437.505
PCSat 29 May 02:42:43 02:45:31 14° 315° (NW) 02:48:05 145.827
O/OREOS (USA 219) 29 May 02:43:17 02:47:09 28° 256° (WSW) 02:50:57 437.305
Gurwin Techsat 1B 29 May 02:45:35 02:49:28 21° 93° (E) 02:53:31 435.225
STARS 29 May 02:46:32 02:49:39 20° 69° (ENE) 02:52:54 437.465
PHONESAT 2.4 29 May 02:50:50 02:54:20 83° 160° (SSE) 02:57:49 2401.200-2431.200
Cosmos 2499 29 May 02:54:53 03:01:59 89° 83° (E) 03:09:16 435.465 / 435.565
BEESAT 2 29 May 03:00:04 03:04:00 44° 56° (ENE) 03:07:53 435.950
AIST 2 29 May 03:04:53 03:07:23 16° 47° (NE) 03:10:00 435.215
GONETS M04 29 May 03:06:18 03:10:56 15° 280° (W) 03:14:54
Oscar 19 29 May 03:15:00 03:19:59 50° 287° (WNW) 03:24:55 437.125/150
KKS-1 29 May 03:22:35 03:27:04 84° 77° (ENE) 03:31:35 437.445
ITAMSAT 1 29 May 03:33:39 03:38:52 67° 101° (ESE) 03:44:04 435.822/435.867
VERMONT LUNAR 29 May 03:34:18 03:37:17 33° 357° (N) 03:40:15 437.305
BEESAT 3 29 May 03:46:14 03:50:03 40° 245° (WSW) 03:53:48 437.485
SO-50 29 May 03:49:31 03:53:53 37° 307° (NW) 03:58:22 436.795
AO-7 29 May 04:09:50 04:16:13 25° 94° (E) 04:22:55 29.400- 29.500
HORYU 2 29 May 04:10:42 04:14:03 22° 94° (E) 04:17:30 437.375
STARS 29 May 04:21:52 04:25:54 33° 263° (W) 04:29:55 437.465
Gurwin Techsat 1B 29 May 04:24:39 04:29:39 41° 288° (WNW) 04:34:35 435.225
PHONESAT 2.4 29 May 04:29:21 04:32:39 38° 354° (N) 04:35:56 2401.200-2431.200
BEESAT 2 29 May 04:39:42 04:41:44 13° 250° (WSW) 04:43:33 435.950
AIST 2 29 May 04:42:13 04:46:17 48° 245° (WSW) 04:50:15 435.215
Cosmos 2499 29 May 04:51:52 04:54:19 11° 278° (W) 04:56:12 435.465 / 435.565
Cosmos 2491 29 May 05:00:50 05:01:08 10° 57° (ENE) 05:02:19 435.465 / 435.565
MOZHAYETS 4 29 May 05:07:46 05:12:21 86° 77° (ENE) 05:16:57
JAS-2 29 May 05:10:19 05:15:32 89° 82° (E) 05:21:02 435.910
VERMONT LUNAR 29 May 05:11:42 05:14:49 48° 14° (NNE) 05:17:56 437.305
ITAMSAT 1 29 May 05:15:12 05:17:52 14° 295° (WNW) 05:20:17 435.822/435.867
ISS 29 May 05:30:30 05:33:23 28° 34° (NE) 05:36:17 145.825
HORYU 2 29 May 05:46:54 05:50:43 29° 289° (WNW) 05:54:28 437.375
AO-7 29 May 06:01:20 06:09:36 64° 291° (WNW) 06:17:49 29.400- 29.500
PHONESAT 2.4 29 May 06:07:48 06:11:08 43° 11° (N) 06:14:28 2401.200-2431.200
Cubesat XI-IV 29 May 06:25:54 06:29:06 16° 91° (E) 06:32:34 437.490
VERMONT LUNAR 29 May 06:48:58 06:51:58 37° 209° (SSW) 06:54:56 437.305
Cosmos 2491 29 May 06:51:27 07:00:14 66° 80° (E) 07:08:56 435.465 / 435.565
CUBESAT XI-V 29 May 06:52:59 06:57:34 89° 83° (E) 07:02:13 437.345
ISS 29 May 07:07:03 07:09:43 23° 229° (SW) 07:12:22 145.825
PRISM 29 May 07:15:20 07:19:22 70° 76° (ENE) 07:23:27 437.425
RS-15 29 May 07:22:55 07:29:54 21° 103° (ESE) 07:37:37 29.354- 29.394
M-CUBED/EXP-1 PRIME 29 May 07:26:50 07:30:59 56° 71° (ENE) 07:34:49 437.505
STRAND 1 29 May 07:30:34 07:35:40 88° 69° (ENE) 07:40:48 437.568
AUBIESAT-1 29 May 07:32:43 07:36:49 56° 71° (ENE) 07:40:36 437.475
YUBILEINY 29 May 07:37:51 07:46:25 63° 92° (E) 07:55:02 435.215
CUTE-I 29 May 07:42:52 07:48:16 86° 284° (WNW) 07:53:39 437.470
PHONESAT 2.4 29 May 07:45:55 07:49:20 56° 207° (SSW) 07:52:43 2401.200-2431.200
AIST 1 29 May 07:49:55 07:54:08 44° 79° (E) 07:58:21
AO-7 29 May 07:57:44 08:01:00 12° 308° (NW) 08:03:44 29.400- 29.500
Cubesat XI-IV 29 May 08:04:21 08:09:36 54° 287° (WNW) 08:14:48 437.490
Cosmos 2491 29 May 08:49:48 08:56:27 23° 276° (W) 09:02:40 435.465 / 435.565
GOMX 1 29 May 08:51:11 08:55:31 27° 93° (E) 08:59:45 467.674
BRITE-PL 29 May 09:00:28 09:05:57 55° 98° (E) 09:11:07 437.365/2234.400
CANX-2 29 May 09:11:59 09:15:26 25° 95° (E) 09:18:57 2200.000
Cosmos 2504 29 May 09:14:55 09:21:06 25° 87° (E) 09:27:18 435.465 / 435.565
CUTE 1.7 + AOD 2 29 May 09:15:11 09:18:36 24° 95° (E) 09:22:05 437.475
AIST 1 29 May 09:29:22 09:31:25 13° 273° (W) 09:33:14
